When you browse on this site, cookies collect data to enhance your experience and personalize the content and advertising you see.
Visit our Privacy Policy to learn more. By continuing to use the site, you agree to this use of cookies and data.
  • In Portugal
  • List of Countries
  • For 7 days
  • Water Temperature
  • Weather Map
  • Weather Widgets
  • user-avatar
    Login

    Hourly Weather Olszowka

    Today, 18 September, Wednesday

    Time Temperature Precipitation Wind Pressure Humidity
    00:00 +6°C° 0.4 mm 4 mps 715 mmHg 89%
    01:00 +5°C° 0 mm 3 mps 715 mmHg 92%
    02:00 +5°C° 0.1 mm 4 mps 715 mmHg 93%
    03:00 +4°C° 0.1 mm 4 mps 715 mmHg 93%
    04:00 +4°C° 0.1 mm 4 mps 715 mmHg 94%
    05:00 +4°C° 0.1 mm 4 mps 716 mmHg 92%
    06:00 +3°C° 0.1 mm 5 mps 717 mmHg 91%
    07:00 +5°C° 0.1 mm 5 mps 718 mmHg 90%
    08:00 +5°C° 0 mm 5 mps 718 mmHg 89%
    09:00 +5°C° 0 mm 4 mps 719 mmHg 88%
    10:00 +5°C° 0 mm 4 mps 719 mmHg 88%
    11:00 +6°C° 0.1 mm 4 mps 719 mmHg 83%
    12:00 +7°C° 0.1 mm 4 mps 720 mmHg 77%
    13:00 +8°C° 0.1 mm 4 mps 720 mmHg 72%
    14:00 +10°C° 0 mm 4 mps 720 mmHg 70%
    15:00 +10°C° 0 mm 4 mps 720 mmHg 68%
    16:00 +10°C° 0 mm 4 mps 720 mmHg 66%
    17:00 +9°C° 0 mm 3 mps 720 mmHg 71%
    18:00 +7°C° 0 mm 2 mps 720 mmHg 76%
    19:00 +6°C° 0 mm 2 mps 720 mmHg 80%
    20:00 +6°C° 0 mm 2 mps 720 mmHg 81%
    21:00 +6°C° 0 mm 2 mps 721 mmHg 82%
    22:00 +6°C° 0 mm 2 mps 721 mmHg 83%
    23:00 +6°C° 0.1 mm 2 mps 721 mmHg 86%

    Tomorrow, 19 September, Thursday

    Time Temperature Precipitation Wind Pressure Humidity
    00:00 +5°C° 0.1 mm 2 mps 721 mmHg 89%
    01:00 +5°C° 0.1 mm 2 mps 721 mmHg 92%
    02:00 +5°C° 0 mm 2 mps 721 mmHg 91%
    03:00 +4°C° 0 mm 2 mps 721 mmHg 90%
    04:00 +4°C° 0 mm 2 mps 721 mmHg 90%
    05:00 +5°C° 0 mm 2 mps 722 mmHg 87%
    06:00 +5°C° 0 mm 2 mps 722 mmHg 84%
    07:00 +6°C° 0 mm 2 mps 722 mmHg 80%
    08:00 +7°C° 0 mm 2 mps 723 mmHg 73%
    09:00 +8°C° 0 mm 3 mps 723 mmHg 65%
    10:00 +10°C° 0 mm 3 mps 724 mmHg 58%
    11:00 +10°C° 0 mm 3 mps 723 mmHg 58%
    12:00 +10°C° 0 mm 3 mps 723 mmHg 57%
    13:00 +10°C° 0 mm 3 mps 723 mmHg 57%
    14:00 +10°C° 0 mm 3 mps 723 mmHg 58%
    15:00 +10°C° 0 mm 3 mps 723 mmHg 60%
    16:00 +10°C° 0 mm 3 mps 723 mmHg 62%
    17:00 +8°C° 0 mm 2 mps 723 mmHg 70%
    18:00 +7°C° 0 mm 2 mps 723 mmHg 78%
    19:00 +5°C° 0 mm 2 mps 723 mmHg 86%
    20:00 +5°C° 0 mm 2 mps 723 mmHg 88%
    21:00 +5°C° 0 mm 2 mps 723 mmHg 89%
    22:00 +4°C° 0 mm 2 mps 724 mmHg 90%
    23:00 +4°C° 0 mm 2 mps 724 mmHg 91%

    Day after tomorrow, 20 September, Friday

    Time Temperature Precipitation Wind Pressure Humidity
    00:00 +4°C° 0 mm 2 mps 724 mmHg 92%
    01:00 +5°C° 0 mm 1 mps 724 mmHg 93%
    02:00 +5°C° 0 mm 1 mps 724 mmHg 94%
    03:00 +4°C° 0 mm 1 mps 724 mmHg 94%
    04:00 +4°C° 0 mm 1 mps 724 mmHg 95%
    05:00 +5°C° 0 mm 1 mps 724 mmHg 92%
    06:00 +6°C° 0 mm 1 mps 724 mmHg 89%
    07:00 +7°C° 0 mm 1 mps 724 mmHg 86%
    08:00 +9°C° 0 mm 1 mps 725 mmHg 76%
    09:00 +10°C° 0 mm 2 mps 725 mmHg 66%
    10:00 +12°C° 0 mm 2 mps 725 mmHg 56%
    11:00 +13°C° 0.1 mm 2 mps 725 mmHg 56%
    12:00 +13°C° 0.1 mm 2 mps 725 mmHg 56%
    13:00 +13°C° 0.1 mm 2 mps 725 mmHg 55%
    14:00 +13°C° 0 mm 2 mps 724 mmHg 58%
    15:00 +13°C° 0 mm 2 mps 724 mmHg 60%
    16:00 +13°C° 0 mm 2 mps 724 mmHg 63%
    17:00 +10°C° 0 mm 2 mps 724 mmHg 71%
    18:00 +9°C° 0 mm 1 mps 724 mmHg 79%
    19:00 +6°C° 0 mm 0 mps 724 mmHg 88%
    20:00 +6°C° 0 mm 0 mps 724 mmHg 88%
    21:00 +5°C° 0 mm 0 mps 724 mmHg 89%
    22:00 +6°C° 0 mm 1 mps 724 mmHg 90%
    23:00 +6°C° 0 mm 1 mps 724 mmHg 90%

    21 September, Saturday

    Time Temperature Precipitation Wind Pressure Humidity
    00:00 +5°C° 0 mm 1 mps 724 mmHg 90%
    01:00 +5°C° 0 mm 1 mps 724 mmHg 90%
    02:00 +5°C° 0 mm 1 mps 724 mmHg 90%
    03:00 +5°C° 0 mm 1 mps 724 mmHg 90%
    04:00 +5°C° 0 mm 1 mps 724 mmHg 89%
    05:00 +6°C° 0 mm 1 mps 724 mmHg 85%
    06:00 +7°C° 0 mm 1 mps 724 mmHg 81%
    07:00 +8°C° 0 mm 1 mps 724 mmHg 77%
    08:00 +9°C° 0 mm 0 mps 725 mmHg 68%
    09:00 +12°C° 0 mm 0 mps 725 mmHg 58%
    10:00 +15°C° 0 mm 0 mps 725 mmHg 49%
    11:00 +16°C° 0 mm 0 mps 725 mmHg 47%
    12:00 +19°C° 0 mm 1 mps 725 mmHg 44%
    13:00 +20°C° 0 mm 1 mps 724 mmHg 42%
    14:00 +19°C° 0 mm 1 mps 724 mmHg 47%
    15:00 +19°C° 0 mm 1 mps 724 mmHg 52%
    16:00 +18°C° 0 mm 1 mps 723 mmHg 57%
    17:00 +15°C° 0 mm 1 mps 723 mmHg 63%
    18:00 +12°C° 0 mm 1 mps 723 mmHg 70%
    19:00 +10°C° 0 mm 1 mps 722 mmHg 77%
    20:00 +10°C° 0 mm 1 mps 722 mmHg 78%
    21:00 +9°C° 0 mm 1 mps 722 mmHg 78%
    22:00 +9°C° 0 mm 1 mps 722 mmHg 79%
    23:00 +8°C° 0 mm 1 mps 722 mmHg 79%

    22 September, Sunday

    Time Temperature Precipitation Wind Pressure Humidity
    00:00 +8°C° 0 mm 1 mps 722 mmHg 78%
    01:00 +8°C° 0 mm 1 mps 722 mmHg 78%
    02:00 +8°C° 0 mm 1 mps 721 mmHg 77%
    03:00 +7°C° 0 mm 1 mps 721 mmHg 75%
    04:00 +7°C° 0 mm 1 mps 721 mmHg 74%
    05:00 +8°C° 0 mm 1 mps 721 mmHg 71%
    06:00 +9°C° 0 mm 1 mps 720 mmHg 68%
    07:00 +10°C° 0 mm 1 mps 720 mmHg 65%
    08:00 +13°C° 0 mm 1 mps 720 mmHg 58%
    09:00 +15°C° 0 mm 1 mps 720 mmHg 51%
    10:00 +19°C° 0 mm 1 mps 721 mmHg 44%
    11:00 +20°C° 0 mm 1 mps 720 mmHg 42%
    12:00 +21°C° 0 mm 1 mps 720 mmHg 41%
    13:00 +22°C° 0 mm 1 mps 719 mmHg 39%
    14:00 +21°C° 0 mm 1 mps 719 mmHg 45%
    15:00 +21°C° 0 mm 1 mps 718 mmHg 50%
    16:00 +20°C° 0 mm 1 mps 718 mmHg 55%
    17:00 +18°C° 0 mm 1 mps 717 mmHg 60%
    18:00 +15°C° 0 mm 1 mps 717 mmHg 65%
    19:00 +12°C° 0 mm 1 mps 717 mmHg 70%
    20:00 +12°C° 0 mm 1 mps 716 mmHg 68%
    21:00 +12°C° 0 mm 1 mps 716 mmHg 67%
    22:00 +12°C° 0 mm 1 mps 716 mmHg 65%
    23:00 +12°C° 0 mm 1 mps 716 mmHg 65%

    23 September, Monday

    Time Temperature Precipitation Wind Pressure Humidity
    00:00 +12°C° 0 mm 1 mps 716 mmHg 64%
    01:00 +12°C° 0 mm 1 mps 715 mmHg 64%
    02:00 +12°C° 0 mm 1 mps 715 mmHg 65%
    03:00 +11°C° 0 mm 1 mps 715 mmHg 67%
    04:00 +11°C° 0 mm 1 mps 715 mmHg 68%
    05:00 +12°C° 0 mm 1 mps 714 mmHg 69%
    06:00 +13°C° 0 mm 1 mps 714 mmHg 70%
    07:00 +14°C° 0 mm 1 mps 714 mmHg 71%
    08:00 +16°C° 0 mm 1 mps 715 mmHg 65%
    09:00 +19°C° 0 mm 1 mps 715 mmHg 60%
    10:00 +21°C° 0 mm 1 mps 715 mmHg 55%
    11:00 +22°C° 0 mm 1 mps 715 mmHg 55%
    12:00 +22°C° 0 mm 1 mps 715 mmHg 55%
    13:00 +22°C° 0 mm 1 mps 714 mmHg 55%
    14:00 +21°C° 0 mm 1 mps 714 mmHg 60%
    15:00 +20°C° 0 mm 1 mps 714 mmHg 66%
    16:00 +19°C° 0 mm 1 mps 714 mmHg 72%
    17:00 +18°C° 0 mm 1 mps 714 mmHg 74%
    18:00 +16°C° 0 mm 1 mps 714 mmHg 77%
    19:00 +15°C° 0 mm 1 mps 714 mmHg 79%
    20:00 +14°C° 0.1 mm 1 mps 714 mmHg 81%
    21:00 +14°C° 0.1 mm 1 mps 714 mmHg 82%
    22:00 +14°C° 0.1 mm 1 mps 714 mmHg 84%
    23:00 +14°C° 0.4 mm 1 mps 714 mmHg 88%
    Show more